When you browse on this site, cookies collect data to enhance your experience and personalize the content and advertising you see.
Visit our Privacy Policy to learn more. By continuing to use the site, you agree to this use of cookies and data.
  • In Czech Republic
  • List of Countries
  • For 7 days
  • Water Temperature
  • Weather Map
  • Weather Widgets
  • user-avatar
    Login

    Hourly Weather Solden

    Today, 30 May, Saturday

    Time Temperature Precipitation Wind Pressure Humidity
    00:00 -1°C° 0 mm 1 mps 582 mmHg 86%
    01:00 -1°C° 0 mm 1 mps 582 mmHg 86%
    02:00 -2°C° 0 mm 1 mps 582 mmHg 86%
    03:00 -2°C° 0 mm 1 mps 581 mmHg 86%
    04:00 -2°C° 0 mm 1 mps 581 mmHg 87%
    05:00 0°C° 0 mm 1 mps 582 mmHg 81%
    06:00 0°C° 0 mm 0 mps 583 mmHg 74%
    07:00 +4°C° 0 mm 1 mps 584 mmHg 68%
    08:00 +5°C° 0 mm 1 mps 584 mmHg 63%
    09:00 +7°C° 0 mm 1 mps 584 mmHg 57%
    10:00 +8°C° 0 mm 1 mps 585 mmHg 52%
    11:00 +9°C° 0.1 mm 1 mps 585 mmHg 52%
    12:00 +9°C° 0.1 mm 1 mps 585 mmHg 51%
    13:00 +10°C° 0.1 mm 1 mps 585 mmHg 51%
    14:00 +10°C° 0.3 mm 1 mps 585 mmHg 55%
    15:00 +8°C° 0.3 mm 2 mps 584 mmHg 58%
    16:00 +8°C° 0.3 mm 2 mps 584 mmHg 62%
    17:00 +6°C° 0.5 mm 2 mps 583 mmHg 70%
    18:00 +6°C° 0.5 mm 1 mps 583 mmHg 78%
    19:00 +5°C° 0.5 mm 1 mps 582 mmHg 86%
    20:00 +4°C° 0.2 mm 1 mps 582 mmHg 87%
    21:00 +2°C° 0.2 mm 1 mps 582 mmHg 89%
    22:00 +1°C° 0.2 mm 1 mps 581 mmHg 91%
    23:00 +1°C° 0 mm 1 mps 581 mmHg 91%

    Tomorrow, 31 May, Sunday

    Time Temperature Precipitation Wind Pressure Humidity
    00:00 0°C° 0 mm 1 mps 581 mmHg 91%
    01:00 0°C° 0 mm 1 mps 581 mmHg 91%
    02:00 0°C° 0 mm 1 mps 581 mmHg 91%
    03:00 -1°C° 0 mm 1 mps 580 mmHg 91%
    04:00 -1°C° 0 mm 1 mps 580 mmHg 91%
    05:00 0°C° 0 mm 1 mps 581 mmHg 87%
    06:00 +1°C° 0 mm 1 mps 581 mmHg 83%
    07:00 +2°C° 0 mm 0 mps 582 mmHg 79%
    08:00 +4°C° 0 mm 1 mps 583 mmHg 71%
    09:00 +6°C° 0 mm 1 mps 584 mmHg 63%
    10:00 +8°C° 0 mm 1 mps 584 mmHg 56%
    11:00 +9°C° 0 mm 1 mps 585 mmHg 53%
    12:00 +10°C° 0 mm 1 mps 585 mmHg 50%
    13:00 +10°C° 0 mm 2 mps 585 mmHg 47%
    14:00 +10°C° 0 mm 2 mps 585 mmHg 48%
    15:00 +10°C° 0 mm 2 mps 585 mmHg 49%
    16:00 +10°C° 0 mm 2 mps 585 mmHg 50%
    17:00 +8°C° 0.1 mm 2 mps 584 mmHg 57%
    18:00 +7°C° 0.1 mm 2 mps 584 mmHg 64%
    19:00 +6°C° 0.1 mm 2 mps 583 mmHg 72%
    20:00 +4°C° 0 mm 2 mps 583 mmHg 75%
    21:00 +2°C° 0 mm 2 mps 583 mmHg 78%
    22:00 +1°C° 0 mm 2 mps 582 mmHg 82%
    23:00 +1°C° 0 mm 1 mps 582 mmHg 82%

    Day after tomorrow, 1 June, Monday

    Time Temperature Precipitation Wind Pressure Humidity
    00:00 +1°C° 0 mm 1 mps 582 mmHg 82%
    01:00 0°C° 0 mm 1 mps 581 mmHg 82%
    02:00 0°C° 0 mm 1 mps 581 mmHg 82%
    03:00 0°C° 0 mm 1 mps 581 mmHg 82%
    04:00 -1°C° 0 mm 1 mps 581 mmHg 82%
    05:00 +2°C° 0 mm 1 mps 582 mmHg 75%
    06:00 +3°C° 0 mm 0 mps 583 mmHg 68%
    07:00 +5°C° 0 mm 0 mps 584 mmHg 61%
    08:00 +8°C° 0 mm 1 mps 585 mmHg 56%
    09:00 +10°C° 0 mm 1 mps 586 mmHg 50%
    10:00 +12°C° 0 mm 1 mps 587 mmHg 44%
    11:00 +13°C° 0 mm 1 mps 587 mmHg 42%
    12:00 +14°C° 0 mm 1 mps 587 mmHg 40%
    13:00 +15°C° 0 mm 1 mps 587 mmHg 38%
    14:00 +14°C° 0.1 mm 2 mps 587 mmHg 40%
    15:00 +14°C° 0.1 mm 2 mps 587 mmHg 42%
    16:00 +14°C° 0.1 mm 2 mps 587 mmHg 44%
    17:00 +12°C° 0.2 mm 2 mps 586 mmHg 56%
    18:00 +11°C° 0.2 mm 1 mps 585 mmHg 68%
    19:00 +9°C° 0.2 mm 1 mps 585 mmHg 80%
    20:00 +7°C° 0.1 mm 1 mps 584 mmHg 85%
    21:00 +5°C° 0.1 mm 1 mps 583 mmHg 89%
    22:00 +3°C° 0.1 mm 1 mps 583 mmHg 93%
    23:00 +2°C° 0 mm 0 mps 583 mmHg 93%

    2 June, Tuesday

    Time Temperature Precipitation Wind Pressure Humidity
    00:00 +2°C° 0 mm 0 mps 582 mmHg 93%
    01:00 +2°C° 0 mm 0 mps 582 mmHg 93%
    02:00 +2°C° 0 mm 0 mps 582 mmHg 92%
    03:00 +2°C° 0 mm 0 mps 582 mmHg 92%
    04:00 +2°C° 0 mm 0 mps 582 mmHg 91%
    05:00 +4°C° 0 mm 0 mps 583 mmHg 86%
    06:00 +5°C° 0 mm 0 mps 584 mmHg 81%
    07:00 +7°C° 0 mm 0 mps 584 mmHg 75%
    08:00 +9°C° 0 mm 1 mps 585 mmHg 67%
    09:00 +11°C° 0 mm 1 mps 586 mmHg 60%
    10:00 +13°C° 0 mm 1 mps 586 mmHg 52%
    11:00 +13°C° 0.2 mm 1 mps 586 mmHg 51%
    12:00 +14°C° 0.2 mm 2 mps 586 mmHg 50%
    13:00 +14°C° 0.2 mm 2 mps 586 mmHg 50%
    14:00 +13°C° 0.6 mm 2 mps 585 mmHg 55%
    15:00 +13°C° 0.6 mm 2 mps 585 mmHg 59%
    16:00 +12°C° 0.6 mm 2 mps 584 mmHg 64%
    17:00 +10°C° 0.6 mm 2 mps 583 mmHg 72%
    18:00 +9°C° 0.6 mm 2 mps 583 mmHg 80%
    19:00 +8°C° 0.6 mm 1 mps 582 mmHg 88%
    20:00 +7°C° 0.5 mm 1 mps 581 mmHg 91%
    21:00 +6°C° 0.5 mm 1 mps 581 mmHg 93%
    22:00 +3°C° 0.5 mm 0 mps 580 mmHg 96%
    23:00 +3°C° 0.2 mm 0 mps 580 mmHg 97%

    3 June, Wednesday

    Time Temperature Precipitation Wind Pressure Humidity
    00:00 +4°C° 0.2 mm 1 mps 580 mmHg 97%
    01:00 +5°C° 0.2 mm 1 mps 580 mmHg 97%
    02:00 +5°C° 0.1 mm 1 mps 579 mmHg 97%
    03:00 +4°C° 0.1 mm 0 mps 579 mmHg 97%
    04:00 +4°C° 0.1 mm 0 mps 579 mmHg 97%
    05:00 +5°C° 0.1 mm 1 mps 579 mmHg 96%
    06:00 +5°C° 0.1 mm 1 mps 579 mmHg 95%
    07:00 +6°C° 0.1 mm 1 mps 579 mmHg 94%
    08:00 +6°C° 0.2 mm 1 mps 579 mmHg 91%
    09:00 +7°C° 0.2 mm 1 mps 579 mmHg 88%
    10:00 +8°C° 0.2 mm 1 mps 580 mmHg 85%
    11:00 +8°C° 0.5 mm 1 mps 580 mmHg 82%
    12:00 +9°C° 0.5 mm 1 mps 580 mmHg 78%
    13:00 +9°C° 0.5 mm 2 mps 581 mmHg 74%
    14:00 +9°C° 0.7 mm 2 mps 580 mmHg 75%
    15:00 +9°C° 0.7 mm 2 mps 580 mmHg 77%
    16:00 +8°C° 0.7 mm 2 mps 580 mmHg 78%
    17:00 +9°C° 0.6 mm 1 mps 580 mmHg 82%
    18:00 +8°C° 0.6 mm 1 mps 580 mmHg 86%
    19:00 +7°C° 0.6 mm 1 mps 579 mmHg 90%
    20:00 +6°C° 0.1 mm 1 mps 579 mmHg 92%
    21:00 +3°C° 0.1 mm 0 mps 579 mmHg 94%
    22:00 +2°C° 0.1 mm 0 mps 579 mmHg 96%
    23:00 +2°C° 0 mm 0 mps 579 mmHg 95%

    4 June, Thursday

    Time Temperature Precipitation Wind Pressure Humidity
    00:00 +2°C° 0 mm 0 mps 578 mmHg 95%
    01:00 +2°C° 0 mm 0 mps 578 mmHg 95%
    02:00 +1°C° 0 mm 0 mps 578 mmHg 95%
    03:00 +1°C° 0 mm 0 mps 578 mmHg 94%
    04:00 +1°C° 0 mm 0 mps 578 mmHg 93%
    05:00 +3°C° 0 mm 0 mps 579 mmHg 89%
    06:00 +4°C° 0 mm 0 mps 580 mmHg 84%
    07:00 +6°C° 0 mm 0 mps 580 mmHg 80%
    08:00 +9°C° 0 mm 1 mps 581 mmHg 71%
    09:00 +10°C° 0 mm 1 mps 582 mmHg 61%
    10:00 +12°C° 0 mm 1 mps 583 mmHg 52%
    11:00 +13°C° 0.1 mm 1 mps 583 mmHg 50%
    12:00 +14°C° 0.1 mm 2 mps 583 mmHg 49%
    13:00 +14°C° 0.1 mm 2 mps 584 mmHg 47%
    14:00 +14°C° 0.4 mm 2 mps 583 mmHg 53%
    15:00 +13°C° 0.4 mm 2 mps 583 mmHg 59%
    16:00 +13°C° 0.4 mm 2 mps 583 mmHg 65%
    17:00 +10°C° 0.5 mm 2 mps 582 mmHg 73%
    18:00 +9°C° 0.5 mm 2 mps 581 mmHg 81%
    19:00 +9°C° 0.5 mm 1 mps 581 mmHg 89%
    20:00 +8°C° 0.1 mm 1 mps 581 mmHg 91%
    21:00 +7°C° 0.1 mm 1 mps 581 mmHg 94%
    22:00 +6°C° 0.1 mm 1 mps 580 mmHg 96%
    23:00 +6°C° 0 mm 1 mps 580 mmHg 96%
    Show more